This is the latest recevied weather packets stored in our database for station/object SR2ATJ-13. If no packets are shown the sender has not sent any weather packets the latest 10 day(s).
| Time | Temp. | Humidity | Pressure | Rain* | Wind** | Luminosity | Snow |
|---|---|---|---|---|---|---|---|
| 1777905304 | 24.44° C | 35% | 1010.9 hPa | - | - | - | - |
| 1777904702 | 25° C | 35% | 1010.8 hPa | - | - | - | - |
| 1777904105 | 24.44° C | 35% | 1010.8 hPa | - | - | - | - |
| 1777903506 | 24.44° C | 36% | 1010.9 hPa | - | - | - | - |
| 1777902903 | 25° C | 35% | 1010.8 hPa | - | - | - | - |
| 1777902303 | 24.44° C | 37% | 1011.1 hPa | - | - | - | - |
| 1777901703 | 24.44° C | 37% | 1011.1 hPa | - | - | - | - |
| 1777901104 | 25.56° C | 36% | 1011.1 hPa | - | - | - | - |
| 1777900504 | 25.56° C | 37% | 1011.2 hPa | - | - | - | - |
| 1777899903 | 25° C | 37% | 1011.2 hPa | - | - | - | - |
| 1777899304 | 24.44° C | 37% | 1011.4 hPa | - | - | - | - |
| 1777898705 | 24.44° C | 37% | 1011.5 hPa | - | - | - | - |
| 1777898105 | 25° C | 36% | 1011.5 hPa | - | - | - | - |
| 1777897504 | 25.56° C | 37% | 1011.5 hPa | - | - | - | - |
| 1777896904 | 25.56° C | 37% | 1011.4 hPa | - | - | - | - |
| 1777896305 | 25.56° C | 37% | 1011.5 hPa | - | - | - | - |
| 1777895703 | 25° C | 38% | 1011.6 hPa | - | - | - | - |
| 1777895104 | 23.89° C | 38% | 1011.7 hPa | - | - | - | - |
| 1777894504 | 23.89° C | 38% | 1011.6 hPa | - | - | - | - |
| 1777893905 | 24.44° C | 37% | 1011.5 hPa | - | - | - | - |
| 1777893304 | 25.56° C | 37% | 1011.6 hPa | - | - | - | - |
| 1777892704 | 25° C | 37% | 1011.7 hPa | - | - | - | - |
| 1777892103 | 23.89° C | 37% | 1011.7 hPa | - | - | - | - |
| 1777891504 | 24.44° C | 36% | 1011.8 hPa | - | - | - | - |
| 1777890304 | 25° C | 35% | 1011.7 hPa | - | - | - | - |
* Rain since midnight (hover to see other rain measurements)
** Current wind speed in m/s (hover to see current wind gust speed)